Wind_Speed
27 28 27 25 25 25 24 25 26 22 18 17 16 15 14 13 13 12 11 10 11 11 11 11 11 10 9 8 8 9 9 9 9 8 8 8 7 6 6 6 6 6 6 6 6 7 9 9 10 12 13 13 12 11 9 7 7 8 7 7 6 3 4 9 10 8 7 8 8 11 13 12 12 13 13 14 14 13 13 14 15 15 13 12 11
26 26 25 24 24 24 22 22 24 22 19 17 17 15 15 14 13 12 11 11 11 11 11 11 11 10 9 8 8 9 10 10 10 9 9 8 8 7 6 6 6 7 7 7 7 7 9 10 11 12 12 12 11 10 9 7 8 9 8 7 7 3 1 5 12 11 8 8 9 10 12 12 11 12 13 14 14 13 13 13 14 14 13 12 12
23 22 22 22 22 23 22 20 22 22 19 18 17 16 15 14 13 12 11 11 11 11 11 11 11 10 9 8 9 10 10 10 10 10 10 10 9 7 6 6 7 7 8 8 8 8 10 11 11 11 11 10 9 9 8 7 6 8 7 5 6 4 1 1 8 11 10 9 9 10 12 11 11 11 12 13 13 13 13 13 13 13 13 13 12
21 19 18 20 22 23 23 21 22 22 20 19 18 17 15 14 13 12 12 11 11 10 10 10 10 10 9 9 9 10 11 11 10 10 10 10 9 8 7 8 8 7 8 10 10 9 10 11 10 10 10 8 8 7 7 5 4 5 6 5 5 5 2 2 4 7 10 10 9 10 12 11 10 11 13 13 13 13 13 13 13 13 13 12 12
19 17 17 21 23 23 23 23 24 23 21 20 18 16 16 14 13 12 12 11 10 10 10 10 10 10 10 9 9 10 11 11 10 10 10 9 8 9 9 9 9 8 8 9 11 10 10 10 10 10 9 8 7 7 6 5 4 4 5 6 6 7 5 4 5 6 7 8 8 9 10 11 10 11 13 14 13 13 13 14 14 13 13 12 11
16 18 21 23 21 20 21 22 23 22 20 19 18 16 16 15 13 12 12 11 10 10 10 10 10 11 10 10 10 10 11 11 10 10 9 8 8 9 9 9 8 8 8 8 10 10 9 10 10 9 9 8 7 6 6 5 3 3 3 4 3 7 7 5 5 6 7 9 9 10 10 11 10 11 12 13 13 12 12 13 13 13 13 12 12
20 23 23 21 19 18 20 19 19 21 20 18 18 16 15 14 13 12 12 11 11 10 10 10 10 10 10 9 10 10 10 10 10 9 10 9 8 8 9 9 8 8 8 7 8 8 8 8 8 8 7 7 6 5 5 4 3 2 2 5 2 5 5 5 6 6 7 8 10 11 10 10 12 12 11 12 13 12 12 12 12 13 13 14 12
26 25 20 18 17 17 18 16 16 19 19 18 18 17 15 15 13 11 11 10 10 10 10 10 10 10 10 9 9 10 9 9 9 9 9 9 9 9 8 9 8 8 7 7 7 7 7 7 7 6 6 5 6 6 4 4 3 2 3 3 1 2 3 5 5 6 6 7 8 10 9 10 13 13 11 12 13 13 14 13 13 13 14 15 15
26 22 18 18 17 16 16 15 14 17 19 18 18 17 16 15 13 12 11 10 9 9 9 10 9 8 9 9 9 9 8 9 9 8 7 9 9 9 9 9 9 8 7 7 7 6 7 7 6 6 7 6 7 7 6 5 3 2 2 3 2 3 5 5 5 5 6 7 8 9 10 12 14 12 12 14 14 13 14 14 14 15 16 15 16
20 16 17 18 18 18 17 15 14 15 17 17 17 17 16 15 13 12 11 10 8 8 8 9 8 8 9 9 9 8 7 9 11 8 7 9 8 8 9 8 8 8 8 7 7 6 6 6 5 6 7 7 8 8 8 8 7 3 3 3 3 3 4 5 6 6 7 8 8 9 10 12 13 12 12 14 14 13 14 14 15 16 16 15 15
14 12 16 16 17 18 16 15 15 14 14 15 16 15 15 15 13 12 11 10 8 7 7 7 6 6 8 9 9 8 6 8 10 8 7 7 5 5 8 8 7 7 7 7 7 6 6 6 6 7 7 7 8 7 7 8 8 6 5 5 5 5 5 5 6 6 7 8 8 9 10 11 11 11 12 14 15 15 15 15 17 17 15 15 16
14 13 13 14 16 17 16 15 16 15 13 14 14 15 15 16 14 12 12 10 9 8 7 6 7 8 9 10 9 8 7 8 9 7 6 6 4 4 4 6 6 6 6 6 6 6 7 6 6 6 7 7 7 6 6 6 6 6 6 7 7 8 7 7 8 7 8 9 10 11 11 11 11 11 12 12 13 13 14 16 18 18 16 17 18
21 19 17 17 17 18 18 17 18 18 16 14 15 16 16 16 15 16 15 12 11 10 8 7 6 6 7 7 6 5 6 6 7 5 4 4 3 1 2 2 4 5 5 5 6 5 5 6 6 6 7 8 8 7 7 7 8 9 9 9 9 10 10 11 11 11 11 10 11 12 12 11 12 12 11 11 12 12 13 15 17 17 17 18 19
24 23 21 19 18 18 19 19 18 18 18 17 17 16 16 15 14 14 15 13 12 12 11 9 8 6 5 5 5 5 5 5 4 4 3 2 4 5 5 4 4 5 4 5 6 5 6 6 7 7 7 6 6 8 9 9 11 12 12 12 14 14 14 15 15 16 16 16 15 15 14 13 14 13 12 11 12 13 14 16 16 17 18 17 18
24 23 21 19 18 18 19 19 17 16 18 18 16 12 11 11 10 9 9 9 10 10 10 9 9 9 9 8 8 7 6 4 3 2 2 1 3 5 5 5 6 6 6 6 7 7 7 8 8 9 8 5 4 8 12 13 13 14 13 13 13 13 14 16 17 18 18 19 19 18 16 16 16 15 14 13 13 13 14 15 16 16 17 14 14
25 23 21 19 19 18 18 19 18 17 17 15 13 11 9 9 9 9 9 8 8 8 9 9 9 9 10 9 9 8 7 6 3 2 2 1 2 3 5 7 8 7 7 6 7 7 7 7 8 8 7 7 8 9 11 13 15 16 16 16 16 17 17 17 18 19 19 18 18 18 18 18 18 19 19 18 19 18 16 16 16 16 15 14 13
25 23 21 20 21 20 19 19 18 18 18 17 15 15 13 12 11 10 11 11 11 10 11 11 10 9 9 8 8 9 9 7 4 1 3 5 4 3 5 8 8 7 6 6 5 7 6 6 7 6 5 7 10 9 10 14 16 16 15 15 17 20 22 20 19 19 19 20 22 22 21 22 23 24 24 24 25 24 21 18 17 17 17 15 15
24 23 21 20 21 22 21 20 19 18 18 17 17 17 16 14 13 11 11 12 11 11 11 11 10 10 11 9 8 8 8 6 3 2 3 5 5 3 5 7 6 4 5 4 4 6 6 6 8 8 6 7 10 11 13 16 16 15 14 15 17 19 20 20 18 16 16 18 21 22 23 24 25 26 27 27 27 26 23 21 19 20 20 19 19
20 19 19 20 21 22 21 20 20 19 17 16 15 16 16 15 13 12 13 12 11 11 11 10 10 11 11 10 7 7 7 6 5 4 4 4 5 2 2 3 2 3 4 4 4 5 5 6 8 8 8 8 10 12 14 16 16 14 14 15 17 16 15 14 13 13 15 17 18 18 19 20 21 23 25 27 28 28 26 25 21 20 21 21 20
17 17 17 17 19 20 20 19 18 18 17 16 15 15 15 14 14 14 13 12 11 10 10 8 8 7 7 6 4 4 4 3 3 2 2 3 3 3 2 2 4 4 5 6 6 6 6 5 8 9 10 11 12 13 15 16 17 17 16 15 15 14 14 14 12 11 12 14 14 13 13 13 15 15 17 20 24 25 26 26 22 19 20 21 21
16 17 17 17 17 17 17 16 16 16 16 16 15 14 14 14 14 12 10 9 9 9 7 6 5 4 3 2 2 1 0 0 0 1 3 3 4 4 4 5 5 6 7 7 7 7 5 5 8 10 11 12 13 14 15 16 18 19 19 19 18 18 18 20 20 18 15 14 15 15 14 14 14 14 14 16 18 20 21 21 19 17 17 17 18
15 16 16 17 17 16 16 15 14 14 13 13 13 13 12 11 11 9 8 7 7 6 5 4 4 4 3 2 1 1 3 3 3 4 5 6 6 6 5 6 9 10 9 7 8 9 8 8 11 15 16 16 16 18 19 20 20 21 21 21 21 20 21 22 23 22 19 16 17 17 17 16 16 16 17 16 16 15 15 14 15 16 17 16 14
14 15 15 15 15 15 14 14 13 12 12 11 10 10 9 8 7 6 6 5 5 4 4 4 4 4 3 3 2 2 1 3 5 6 7 7 7 6 5 4 6 7 7 6 7 8 7 7 10 14 17 19 21 22 23 23 22 22 21 21 20 19 20 21 22 22 20 19 18 19 19 19 19 19 19 18 17 16 12 10 12 16 17 17 14
14 14 14 14 14 13 13 12 11 11 10 10 9 9 8 6 5 5 3 3 3 3 3 2 2 2 2 3 3 3 2 1 5 8 9 8 8 8 7 6 5 5 6 7 7 7 8 10 13 15 18 21 23 24 24 23 21 20 19 18 17 18 18 20 21 21 20 20 19 20 22 22 22 23 21 16 15 15 13 11 12 13 12 12 11
14 14 14 13 12 11 11 12 11 11 10 9 9 8 7 6 5 4 4 3 3 2 2 1 1 1 1 2 3 3 2 1 2 7 10 10 10 10 10 10 9 8 7 5 6 9 11 14 17 19 20 21 22 22 21 19 17 17 16 16 17 18 18 18 17 16 16 17 18 20 22 23 23 23 20 15 15 14 12 11 9 9 10 11 11
13 12 13 13 12 12 11 11 11 11 10 10 9 9 8 7 6 5 5 4 3 3 3 2 2 2 2 2 2 2 2 2 3 5 9 10 10 11 11 10 9 10 8 5 5 8 12 15 18 18 16 16 16 17 16 15 16 17 18 18 18 18 15 13 13 14 14 16 18 20 21 20 18 14 12 15 14 11 10 11 10 10 11 12 11
10 11 11 11 11 12 11 11 11 11 11 11 10 10 9 9 9 8 7 6 5 5 4 4 4 4 3 3 2 1 2 4 6 7 8 8 8 9 9 9 8 8 7 6 6 9 13 15 17 16 13 12 12 13 13 13 15 15 15 15 14 13 11 10 12 15 16 17 18 19 18 15 9 8 11 13 11 11 12 14 12 11 11 9 8
9 9 10 10 10 10 10 11 11 11 13 13 13 12 10 9 10 10 10 8 6 6 6 6 7 6 5 5 4 2 4 8 8 8 8 8 8 8 7 7 7 7 7 8 10 12 13 14 13 12 11 10 10 11 11 11 11 11 11 11 11 11 10 10 11 13 14 16 18 18 16 10 6 7 9 11 11 11 13 12 10 9 8 7 7
8 9 9 9 9 9 10 10 10 10 10 12 14 16 14 12 10 10 10 9 8 7 7 7 7 6 6 7 6 4 6 8 8 7 7 8 9 9 8 8 8 7 8 10 12 13 13 12 11 10 9 9 9 9 9 9 10 10 10 11 11 12 13 12 10 10 12 13 15 16 13 8 8 7 7 8 9 9 9 9 8 9 9 8 7
8 9 9 9 9 9 9 9 8 8 7 7 9 12 15 15 14 12 12 11 11 10 9 9 9 8 7 8 8 6 6 7 6 5 6 7 9 10 11 11 11 10 9 10 12 13 12 10 9 8 8 8 8 8 8 9 10 10 11 11 12 13 14 13 10 9 11 13 14 13 10 5 6 8 9 11 11 11 11 11 10 8 8 7 6
7 9 9 9 8 7 8 7 7 6 6 5 5 6 8 12 14 15 15 14 13 13 12 12 12 10 9 7 6 5 5 5 5 5 7 8 10 12 12 12 12 11 9 8 9 10 10 9 8 8 7 7 8 8 9 9 10 11 12 12 12 13 13 12 9 7 9 11 12 13 11 7 6 9 12 14 14 14 13 12 10 8 7 5 4
8 7 8 8 7 7 7 7 6 5 5 5 4 3 5 8 10 12 13 13 12 13 14 14 13 12 10 9 7 5 5 6 7 7 8 9 10 11 11 12 13 12 9 7 6 7 8 7 8 8 8 8 9 10 11 11 11 11 12 12 12 12 10 9 6 5 6 7 8 10 10 8 8 11 13 15 15 14 13 10 9 8 6 3 2
10 9 7 6 6 6 6 6 5 5 5 4 4 4 3 4 7 9 8 8 8 10 13 13 13 12 11 9 8 7 8 9 10 10 10 10 9 8 8 10 12 13 12 8 7 8 8 8 9 9 10 10 10 11 12 12 12 12 11 12 13 11 8 7 6 5 5 6 6 5 5 7 11 13 14 14 13 11 10 8 7 6 5 2 1
8 9 8 7 5 5 6 5 4 4 4 4 4 4 4 4 3 4 6 5 5 6 9 11 13 14 13 11 10 10 10 10 11 12 10 9 8 8 8 8 10 12 13 11 9 9 10 10 10 10 11 11 10 10 11 11 12 12 12 12 12 11 8 7 6 4 3 3 2 4 7 11 14 14 13 12 11 9 9 7 5 4 4 3 4
6 7 5 6 5 4 5 5 4 3 3 3 3 3 3 3 2 2 2 3 4 5 6 8 12 14 14 12 12 13 13 12 13 14 13 11 11 10 10 9 10 11 11 10 10 10 10 10 10 11 11 11 11 11 11 11 11 12 12 12 12 11 9 7 5 3 1 2 5 9 11 12 11 10 9 7 6 7 7 6 4 3 4 4 4
3 4 4 4 5 4 4 5 5 3 2 2 2 3 3 2 1 1 2 2 2 2 4 7 10 12 12 12 13 14 14 14 15 16 17 15 14 12 11 10 10 10 10 10 11 11 10 10 11 11 11 11 11 11 11 11 11 11 11 11 11 10 9 6 3 0 3 7 10 11 11 10 8 7 6 4 3 3 4 4 3 2 2 3 2
4 5 6 5 5 4 3 4 5 5 3 4 2 1 2 2 2 2 3 3 4 4 4 5 6 7 8 10 11 10 11 13 14 15 16 16 15 13 12 12 11 11 11 11 11 11 11 11 11 11 11 11 10 10 10 10 10 10 10 9 8 7 6 2 2 4 7 11 13 12 11 10 8 7 5 4 4 4 3 2 2 1 1 3 4
3 5 7 5 4 4 3 2 4 4 4 4 2 2 2 1 2 2 3 3 2 3 3 5 5 6 7 8 8 8 9 12 13 13 15 15 15 14 14 13 13 12 11 11 11 11 11 11 11 11 12 11 11 10 10 9 9 8 8 7 6 5 2 3 7 10 12 14 13 13 12 11 9 7 6 5 5 5 3 1 2 2 3 5 6
3 6 7 4 1 4 4 2 2 3 2 1 3 3 1 2 3 3 3 3 2 3 4 5 7 8 9 9 9 9 9 11 12 13 14 14 14 14 13 13 13 12 11 11 10 10 10 10 11 11 11 11 11 11 10 8 8 7 6 5 6 6 6 8 10 11 12 12 11 12 11 9 8 8 6 4 5 4 1 2 3 3 3 2 1
3 5 7 4 1 3 3 2 2 2 2 2 2 2 2 2 3 3 3 4 3 4 5 6 7 9 8 9 10 11 10 10 11 12 12 13 13 13 12 12 13 12 11 10 10 10 10 10 10 11 11 11 11 11 10 9 7 6 7 8 9 10 11 11 11 10 10 11 12 11 9 7 6 5 4 4 4 3 1 3 1 2 4 4 4
2 1 4 4 2 1 1 1 2 3 2 1 1 2 2 2 2 2 3 4 3 4 5 6 7 8 8 9 10 11 10 10 10 10 10 11 12 11 11 12 12 12 12 11 10 9 10 10 10 10 10 10 10 11 11 11 9 9 10 11 11 12 12 12 12 12 11 11 10 8 7 6 5 4 4 4 2 1 1 1 2 3 3 4 4
5 3 2 4 2 1 2 1 1 0 0 0 1 1 1 2 2 3 3 3 3 4 4 5 6 7 9 10 11 11 9 9 9 9 9 10 10 11 11 11 11 12 12 11 9 9 10 10 10 10 10 10 10 10 10 10 10 9 10 10 10 10 10 10 10 9 8 8 8 7 7 7 6 5 5 3 2 2 5 6 5 4 4 4 4
4 4 2 2 3 3 3 3 2 1 1 2 2 1 1 1 2 2 3 3 3 3 3 3 3 4 5 8 10 10 9 8 8 9 10 9 10 10 10 10 11 11 11 10 9 9 9 9 8 9 8 8 8 8 8 9 10 10 10 11 11 10 10 9 9 8 7 8 8 8 8 7 6 5 5 5 5 5 6 5 5 4 5 5 4
4 3 2 4 4 2 1 2 3 1 2 2 2 2 2 2 2 2 2 3 3 3 3 3 2 2 3 5 6 7 8 8 8 9 9 9 9 9 9 9 9 10 10 10 9 9 9 9 10 10 9 8 8 8 8 9 11 11 11 11 11 11 11 10 9 8 7 7 7 7 7 6 5 6 6 6 6 5 5 4 5 6 6 6 5
5 4 3 3 4 3 2 2 1 0 1 2 3 3 2 2 2 2 2 3 3 3 3 3 2 3 3 4 5 6 7 7 7 7 7 8 8 8 8 8 9 9 9 10 9 9 8 8 10 12 12 9 9 10 10 11 12 12 10 10 10 10 10 9 8 7 6 6 5 6 6 5 5 5 5 6 6 6 6 7 7 7 7 6 5
5 4 4 3 3 3 3 2 0 2 2 3 3 3 3 3 3 3 3 3 3 3 3 3 3 3 3 4 4 5 5 5 6 6 6 6 6 6 7 7 8 8 9 10 10 10 10 9 10 11 11 10 9 10 10 10 11 10 10 9 8 8 7 7 6 6 6 4 3 4 4 5 3 3 4 6 6 6 6 7 6 6 6 5 4
6 5 4 4 3 2 3 1 2 3 2 2 3 3 3 3 3 3 3 3 3 4 3 4 4 4 3 3 4 4 4 4 5 5 5 5 5 5 6 6 6 7 7 8 9 9 10 10 10 10 11 11 11 10 9 9 8 8 8 7 6 7 7 6 5 5 5 4 4 4 6 6 5 4 4 5 6 5 5 5 5 5 5 5 5
7 6 5 5 4 4 3 2 4 4 3 3 3 4 4 4 4 4 5 5 5 5 4 4 4 4 3 3 3 3 4 4 4 4 5 5 5 5 5 5 5 5 6 7 8 8 9 10 10 10 10 10 10 10 9 8 7 7 6 6 6 6 7 6 5 5 5 6 6 5 7 8 8 7 6 6 7 6 6 6 5 5 5 5 5
7 7 6 5 5 5 5 3 3 4 5 6 5 5 6 6 5 5 5 6 6 5 4 4 4 3 3 3 3 2 3 3 3 4 4 4 4 4 4 5 5 5 5 5 6 7 8 9 10 10 10 9 9 8 8 7 7 7 6 6 6 6 5 6 6 6 6 6 6 6 6 7 7 6 6 6 6 7 7 7 6 6 5 5 5
8 8 7 6 6 6 6 4 4 5 5 6 6 6 7 6 6 6 6 5 5 5 4 4 3 3 3 3 2 2 2 2 3 3 3 3 3 3 3 3 4 5 5 5 5 6 6 7 8 9 9 9 9 9 9 9 9 9 9 8 8 8 7 6 5 4 4 6 7 6 6 7 7 7 7 7 7 7 7 7 7 7 7 6 6
8 9 8 8 8 8 7 6 6 6 5 6 7 7 7 7 7 7 6 6 6 6 5 4 4 3 3 2 2 1 2 2 2 2 3 3 2 3 3 2 3 3 4 4 5 5 6 6 7 7 8 9 9 10 10 9 10 10 9 8 8 7 6 5 5 4 4 6 8 7 5 5 6 7 8 8 9 9 8 7 7 7 7 8 7
Wind_Direction
173 174 173 169 170 172 170 174 177 170 164 170 173 174 175 172 171 171 170 170 170 171 171 167 165 165 162 161 166 169 168 165 162 160 157 157 155 152 155 158 145 136 141 150 158 159 155 150 148 150 150 145 142 143 145 145 135 127 127 130 132 145 152 138 134 140 152 158 161 164 165 169 173 169 168 169 169 169 174 188 197 187 180 190 194
174 174 172 165 164 167 167 169 171 166 162 167 173 176 175 173 173 174 175 175 174 175 172 168 168 168 165 165 165 169 170 166 164 163 159 156 154 159 164 159 142 130 135 139 140 148 148 141 141 145 144 141 144 147 147 153 151 139 136 138 140 166 251 136 141 149 156 167 177 172 168 181 185 176 177 175 176 186 184 189 202 199 196 204 209
171 169 167 162 158 163 165 165 165 164 164 168 174 178 176 173 173 175 178 178 179 179 172 168 171 170 167 166 165 171 172 168 168 166 160 159 160 164 164 154 142 138 140 141 139 140 140 136 136 139 140 144 150 150 154 172 171 148 144 141 141 158 262 131 149 157 164 173 186 181 175 190 200 190 185 182 184 197 195 191 199 205 208 211 215
170 166 160 157 159 165 169 168 166 165 166 171 174 176 174 169 170 174 178 180 180 179 172 169 173 170 168 167 165 170 171 168 172 169 164 168 168 166 166 159 157 156 149 146 143 139 138 138 137 140 142 144 146 145 157 181 173 150 155 152 151 166 186 206 189 175 170 176 194 195 179 186 210 204 192 190 192 202 209 205 202 209 216 216 218
165 160 155 157 162 169 173 171 167 166 167 169 171 172 168 165 169 171 174 178 177 174 172 173 174 170 169 169 165 169 172 172 175 171 167 170 169 170 173 169 168 164 150 146 146 146 148 147 144 145 147 146 149 154 164 179 176 167 175 175 167 165 169 203 218 205 188 186 201 211 191 184 209 217 202 199 199 203 214 216 211 214 217 216 221
156 156 157 161 163 166 171 172 170 167 164 164 166 168 164 163 166 165 169 175 174 173 175 174 174 172 172 172 167 168 172 174 174 170 167 167 166 167 169 168 168 159 149 148 148 150 154 152 149 151 154 156 161 162 159 173 195 177 194 240 203 152 158 200 211 208 213 201 197 217 214 194 205 222 214 209 210 211 217 222 224 223 219 218 224
153 160 160 160 159 158 163 168 168 164 160 160 163 163 161 160 160 161 167 170 170 176 178 173 174 174 171 172 169 166 170 173 173 169 166 164 161 161 163 165 163 157 158 155 150 154 155 152 154 160 166 167 165 167 162 169 205 182 206 274 282 135 157 206 208 205 216 209 202 216 221 205 209 222 223 220 221 221 225 231 233 230 225 225 226
147 153 154 154 154 154 154 155 158 158 157 158 161 161 160 159 159 158 160 162 168 176 175 172 175 173 169 169 166 163 163 164 165 168 169 165 161 160 162 164 161 158 163 156 150 157 156 155 162 162 160 156 147 155 163 163 185 192 194 244 270 178 206 220 214 213 215 214 215 219 220 218 223 227 230 235 231 224 231 241 241 239 237 234 229
147 148 150 153 155 153 146 143 150 155 155 158 162 163 160 159 157 155 152 155 165 173 172 172 171 164 162 162 157 154 153 155 159 162 159 160 165 167 166 168 166 163 163 156 156 164 158 156 164 161 160 165 160 162 171 176 178 159 163 201 229 238 241 237 233 233 229 226 228 228 226 228 233 229 228 241 245 236 236 242 243 245 247 243 234
150 153 157 158 155 149 140 135 138 146 152 157 159 159 159 157 153 151 150 149 155 163 164 166 169 164 160 154 146 145 145 152 159 155 146 155 168 174 172 172 172 172 173 168 167 174 169 164 174 182 184 187 189 188 189 192 196 185 156 178 209 244 257 255 251 251 253 250 243 239 236 235 238 236 231 240 249 247 244 245 248 249 248 248 244
133 140 151 151 146 143 142 139 134 133 142 150 152 154 155 153 148 143 142 141 144 153 154 148 146 148 146 139 138 140 140 152 164 163 152 153 149 152 171 179 179 181 183 181 182 188 191 188 189 198 202 196 194 197 193 191 199 207 204 202 220 244 259 265 264 263 266 269 263 255 250 246 244 243 242 244 244 242 242 247 254 255 251 248 250
95 102 120 125 125 127 130 132 127 122 125 130 131 132 134 134 131 124 120 120 127 141 142 113 90 97 111 119 128 133 134 153 172 177 171 166 130 105 159 185 186 195 199 198 203 201 201 205 200 198 204 202 201 205 208 209 212 217 222 223 229 239 245 252 261 265 270 277 275 268 265 265 262 254 253 257 257 251 242 243 251 256 255 253 252
88 88 101 113 115 116 116 113 111 113 114 113 114 117 118 117 118 118 118 118 122 125 119 107 105 103 97 98 108 122 131 149 169 183 197 205 202 223 281 236 200 209 214 218 230 229 227 229 223 218 218 212 214 224 231 237 241 242 244 245 246 251 251 252 254 257 263 273 274 270 270 274 274 269 267 270 274 269 257 251 251 251 254 255 253
83 81 88 100 106 111 112 107 108 115 121 122 121 118 115 110 109 115 119 118 117 115 107 111 132 143 129 125 135 137 133 136 152 177 200 232 248 257 277 279 248 238 237 238 248 253 255 251 242 242 242 229 225 236 245 252 252 248 248 250 251 252 252 254 258 257 257 259 261 265 269 272 273 273 275 275 272 269 265 261 258 255 257 257 255
77 76 78 83 92 103 107 107 110 118 125 131 131 122 116 115 114 118 122 116 112 111 108 113 128 133 133 140 142 131 122 118 130 167 176 220 268 272 276 271 261 258 253 249 251 253 255 259 259 260 262 268 259 241 242 256 268 268 264 259 259 260 257 256 257 258 258 257 257 260 263 265 266 265 266 266 266 268 271 270 270 268 266 261 254
73 74 72 74 82 92 101 106 111 115 118 125 129 122 116 117 123 135 145 143 136 131 123 118 122 126 126 133 136 130 123 122 121 108 79 16 301 292 283 269 260 256 254 249 248 252 256 256 259 267 277 276 270 254 242 252 266 273 272 269 274 277 274 266 260 255 253 252 253 254 254 254 256 258 259 259 261 267 277 277 272 268 264 257 249
67 67 66 70 79 85 92 97 101 106 110 110 110 108 103 101 107 120 132 134 135 138 134 124 121 125 126 129 133 132 126 122 126 135 340 326 306 290 285 274 263 260 261 257 259 265 264 260 267 288 304 281 271 271 263 259 264 270 273 274 275 274 275 275 269 260 253 251 253 255 256 256 257 259 261 262 263 267 272 270 263 260 259 256 253
64 65 63 68 78 85 91 95 94 96 100 102 104 105 104 101 99 103 113 117 117 123 125 119 120 129 132 126 121 121 121 116 124 180 250 269 253 258 298 286 268 270 274 270 281 286 281 281 290 299 297 276 271 271 268 267 270 275 280 278 270 269 274 273 269 268 266 257 254 257 261 262 261 262 263 263 263 264 264 260 256 257 257 255 257
62 65 65 68 75 81 87 92 96 95 92 91 96 104 108 108 108 113 119 119 117 120 119 114 120 129 129 121 109 102 108 110 113 138 175 208 210 213 334 335 337 346 336 328 327 326 321 308 301 299 293 285 281 274 269 268 268 271 280 283 276 273 278 275 272 281 278 263 256 261 266 266 268 269 269 267 264 261 259 258 255 253 254 254 256
58 61 63 65 68 72 76 80 86 93 94 92 95 103 108 111 115 119 120 119 123 129 128 125 128 130 125 121 107 85 94 113 123 141 193 226 226 215 223 358 16 4 340 332 329 330 338 331 311 303 297 290 287 281 275 272 271 269 271 280 282 282 286 288 286 288 282 269 262 262 262 264 270 275 276 276 274 267 260 256 251 249 254 256 255
57 58 61 63 64 66 69 71 73 79 85 90 94 100 105 107 107 106 106 108 118 127 128 124 122 119 117 127 136 131 329 255 236 287 293 296 300 288 265 266 282 294 299 304 302 298 305 316 305 295 291 290 291 290 287 288 289 284 278 279 281 281 285 288 285 283 286 283 272 264 260 259 258 260 263 271 276 273 265 256 248 243 247 255 261
55 58 60 62 63 64 66 68 69 70 73 80 86 89 94 98 96 93 93 97 104 113 120 118 112 105 97 88 83 353 328 329 325 316 313 310 311 317 301 263 265 285 304 309 297 287 284 288 282 275 276 284 289 291 294 294 293 291 288 288 288 286 284 284 281 280 281 279 272 267 263 257 254 254 255 255 258 261 258 248 238 235 236 241 251
55 59 61 63 64 65 65 66 67 67 68 73 79 82 86 91 91 93 102 111 119 125 133 139 137 134 138 139 123 96 13 341 347 352 346 335 330 333 333 294 269 280 293 296 294 292 288 281 269 262 265 273 277 282 288 290 289 289 289 290 291 290 286 283 280 277 273 270 268 266 263 260 257 255 251 243 239 239 235 227 231 234 232 230 229
53 56 59 63 64 65 65 65 64 65 66 68 73 75 78 83 88 91 98 113 126 130 132 144 154 149 144 144 134 119 120 0 353 4 9 6 4 2 359 350 329 305 292 287 290 290 277 266 263 263 266 271 275 279 283 286 288 289 289 290 292 293 293 290 287 282 275 270 266 261 259 256 253 254 252 239 224 223 221 216 219 220 214 209 202
50 50 53 56 59 62 66 65 63 63 64 65 66 66 65 68 72 74 74 74 77 86 90 98 109 109 105 117 123 108 102 122 4 12 17 18 14 9 6 3 358 350 338 307 284 283 278 273 274 278 280 280 281 282 283 284 284 284 287 292 294 294 294 289 283 277 270 266 262 259 258 256 254 257 255 233 209 207 210 204 194 189 185 177 159
48 50 52 53 54 56 60 62 62 61 61 63 64 60 58 58 55 52 55 59 60 60 62 60 63 72 65 69 92 102 99 122 106 44 26 15 6 2 1 -0 359 360 359 342 312 310 305 298 296 299 298 292 287 282 279 277 278 280 284 288 289 288 283 275 273 271 267 266 266 264 265 268 263 250 229 209 196 189 188 181 167 164 175 176 163
50 52 54 56 58 58 58 61 64 60 57 57 57 55 53 53 53 48 39 34 37 44 47 45 45 48 49 45 44 68 103 89 67 39 22 9 359 356 353 349 350 352 350 342 332 323 313 306 307 309 305 298 292 287 283 280 277 275 274 273 274 269 257 259 277 283 281 281 280 277 280 283 267 215 194 192 182 174 183 184 176 175 183 183 171
50 52 54 55 59 61 60 63 67 67 63 59 55 51 48 48 52 49 38 31 32 33 34 41 40 30 25 28 20 23 67 58 34 9 0 359 357 356 351 345 343 340 331 321 319 322 320 315 315 313 305 297 295 293 291 286 279 274 273 271 269 263 259 269 286 291 291 290 289 291 295 286 241 194 186 185 176 177 191 192 182 178 178 166 156
51 48 48 50 53 56 57 58 63 69 71 67 61 55 51 50 54 52 45 48 54 48 39 40 37 25 21 25 23 21 33 28 9 351 347 347 345 345 341 333 325 320 317 314 319 331 334 323 313 313 312 308 306 304 304 302 297 295 297 298 293 287 283 287 297 307 310 308 306 308 305 272 220 202 189 174 162 162 175 178 171 168 165 155 150
54 49 46 44 44 49 55 57 58 63 71 77 75 67 58 53 54 55 55 58 63 64 61 55 49 44 38 33 29 20 9 1 346 339 345 345 342 342 338 329 321 315 313 318 326 331 328 316 308 317 323 319 316 317 315 315 314 311 310 309 304 297 293 293 298 310 317 320 320 318 308 262 209 202 188 166 151 152 160 162 156 154 154 146 136
50 53 50 39 29 37 53 55 52 58 64 69 87 100 87 69 57 51 52 56 59 60 61 61 59 57 55 49 39 17 1 0 359 358 359 358 357 356 354 352 348 336 326 331 335 325 313 309 314 321 321 316 318 320 316 315 318 316 313 310 304 301 305 307 303 305 314 317 318 314 300 267 210 187 175 161 148 144 147 146 138 129 124 118 120
33 42 55 50 36 38 51 52 48 53 59 58 62 101 130 117 93 68 52 49 54 57 55 51 50 49 50 54 53 30 10 11 8 3 2 3 7 13 19 22 18 9 360 356 343 319 309 317 325 325 322 324 330 336 336 333 327 319 316 315 310 311 325 332 318 309 313 308 305 304 289 250 196 167 154 144 133 123 119 117 113 112 112 108 124
26 22 28 34 38 50 53 46 45 50 50 50 51 46 61 111 119 114 97 72 63 66 62 52 42 35 34 37 35 22 13 10 4 1 3 10 20 28 33 32 28 21 14 0 331 316 323 333 333 332 333 335 340 343 340 334 325 319 317 315 310 312 331 347 335 316 301 290 282 273 246 197 162 143 132 125 119 112 105 100 102 112 118 113 150
45 34 15 357 5 45 52 40 41 52 51 51 53 47 38 35 53 122 132 127 116 101 84 65 46 29 20 23 25 20 17 17 16 15 17 25 37 37 32 33 33 24 15 2 344 338 343 342 337 336 336 337 339 338 331 324 320 319 318 315 313 315 326 339 342 336 316 298 256 189 173 158 143 133 122 115 111 109 108 112 127 153 172 185 198
96 96 66 27 22 43 52 43 39 40 54 70 73 61 60 58 42 64 113 151 167 157 137 104 66 38 23 27 35 33 33 36 35 32 32 37 45 44 39 37 34 25 18 13 6 359 353 348 345 343 339 338 337 333 326 324 321 321 325 328 330 333 335 336 343 355 18 106 124 135 139 134 126 115 103 97 99 104 115 134 160 192 210 211 211
91 108 82 47 36 32 35 42 39 21 5 37 72 67 53 44 42 62 62 47 45 87 125 116 84 55 39 40 40 34 36 42 41 35 34 37 40 40 37 33 28 22 19 17 12 5 360 356 354 348 341 338 335 330 328 328 325 326 333 337 336 338 340 342 344 37 131 124 121 123 122 115 104 99 97 99 105 109 117 136 154 181 217 227 227
22 23 13 15 22 20 29 52 48 30 333 297 301 57 67 35 11 38 50 36 19 27 60 86 79 62 51 44 35 29 34 39 39 35 31 31 33 35 32 28 23 19 15 12 8 5 2 359 356 352 346 342 337 333 333 332 329 330 335 339 343 344 343 350 133 135 123 118 119 119 114 104 99 104 109 112 112 97 74 78 98 45 320 260 237
31 24 10 0 347 344 355 36 26 357 311 296 345 45 61 43 45 58 65 66 33 22 54 66 53 39 32 25 22 29 36 35 33 32 29 26 28 29 28 24 21 16 11 8 4 2 -0 358 356 354 350 347 344 340 336 333 336 341 344 351 4 7 11 111 118 114 107 103 103 103 98 90 83 81 76 77 88 85 69 119 192 229 235 222 228
87 64 41 37 315 326 354 17 356 337 326 15 63 75 72 52 67 71 69 75 67 42 50 57 43 33 27 23 23 28 34 36 34 30 27 27 27 26 25 24 21 16 11 5 3 3 1 0 0 358 356 356 355 352 349 351 358 5 17 36 52 65 85 101 104 104 100 91 86 88 90 85 77 77 77 79 85 82 82 226 232 262 260 201 131
109 92 63 58 334 312 347 351 324 341 19 47 67 93 94 70 75 79 69 68 68 57 52 52 42 34 33 37 33 24 24 35 37 30 26 28 27 26 27 26 20 16 13 8 7 9 8 5 6 6 6 9 9 8 12 23 33 44 58 66 69 73 82 90 92 89 85 81 78 78 81 78 74 76 79 85 95 107 215 230 216 343 353 23 55
320 101 104 107 117 277 276 302 338 353 12 32 62 92 97 82 72 75 77 79 79 73 68 65 56 45 41 45 44 36 31 36 37 33 32 32 29 29 30 27 22 19 16 13 13 16 14 12 14 15 16 20 23 26 34 45 56 65 70 71 72 73 77 81 82 80 80 80 78 76 76 79 82 79 70 70 96 155 281 343 67 65 28 18 27
317 319 160 153 151 304 307 317 343 351 15 74 112 132 114 96 70 60 71 82 84 81 81 83 79 65 51 47 51 52 50 46 42 39 36 35 34 33 32 30 27 23 20 19 21 21 19 19 20 21 25 30 32 35 43 50 54 58 63 66 72 78 81 81 79 79 79 75 73 74 79 81 82 80 68 42 7 17 26 22 27 42 38 28 21
303 317 314 297 303 317 332 332 306 222 73 66 97 160 151 108 99 87 86 86 84 83 81 79 82 74 56 51 55 56 53 49 47 46 42 40 40 39 36 34 32 28 26 29 31 30 31 31 27 27 32 37 39 41 47 52 54 56 62 67 68 69 69 67 64 66 70 69 67 69 70 69 67 63 44 14 9 34 39 20 9 18 26 27 18
280 290 294 297 295 291 322 331 315 321 38 64 127 176 189 159 131 116 112 109 103 105 104 90 82 77 55 51 55 55 53 51 50 49 47 44 42 40 38 36 34 31 31 33 35 38 40 41 47 53 52 46 50 61 74 84 83 77 72 71 66 60 57 55 52 52 60 65 65 65 64 61 59 53 35 15 15 37 51 40 26 21 21 23 17
266 273 272 287 301 306 321 338 345 106 143 170 187 194 189 172 151 130 133 135 125 123 128 120 101 84 72 62 58 56 57 57 53 50 48 47 44 42 40 37 36 36 37 38 44 52 54 55 65 72 68 57 59 73 86 97 97 91 85 79 68 55 48 46 47 51 56 57 61 63 54 39 34 36 27 16 18 31 42 42 31 16 11 15 18
248 261 269 271 278 292 305 324 57 156 178 190 198 201 187 169 163 152 143 144 144 138 135 130 118 103 89 78 68 62 60 59 56 52 50 48 47 45 42 42 43 44 46 47 51 61 69 74 79 83 81 75 75 82 88 93 93 91 91 87 75 61 52 45 42 47 47 42 49 59 43 32 45 61 35 23 28 36 36 32 25 12 3 0 0
243 250 259 258 252 270 293 326 109 145 192 211 206 202 190 173 169 162 145 143 154 154 147 141 129 112 96 85 80 74 67 62 62 60 55 53 53 50 46 48 50 49 50 50 50 54 64 72 75 79 86 87 83 79 77 76 76 76 75 70 66 73 78 68 49 40 36 28 27 27 17 18 44 72 48 20 20 25 18 9 5 3 358 353 350
239 239 247 248 237 235 237 159 113 130 183 202 200 202 201 192 182 167 155 156 162 160 153 145 134 122 113 106 95 83 73 68 67 66 64 62 65 62 54 50 52 51 53 55 54 55 64 73 75 76 80 79 73 66 60 59 61 65 65 64 69 82 91 87 78 73 64 49 38 26 14 14 22 34 33 19 8 2 357 354 353 355 355 356 356
234 235 242 246 242 240 237 211 163 176 187 184 186 196 198 194 186 174 167 166 164 159 155 149 142 136 133 124 110 98 91 81 70 69 70 69 72 75 66 54 53 57 58 59 58 57 62 69 73 73 70 66 65 67 69 70 70 68 67 70 74 80 93 101 98 89 72 54 36 25 23 21 14 11 18 19 5 351 347 351 353 349 339 336 341
232 233 237 237 236 240 243 238 229 215 194 181 187 194 193 192 190 181 175 173 167 161 162 163 161 160 154 141 132 122 107 89 74 78 84 80 79 84 78 63 60 63 65 65 66 64 63 65 67 69 71 71 73 76 78 79 78 75 74 77 79 80 87 95 91 76 67 61 43 23 19 20 8 355 357 1 354 348 349 352 350 340 326 320 327
232 233 235 235 232 232 233 231 233 231 217 204 200 194 190 195 196 187 183 188 183 173 172 178 180 181 176 163 147 115 85 83 88 93 94 93 92 90 86 81 78 75 74 75 75 73 72 69 67 68 75 84 88 86 84 83 82 79 76 75 75 75 77 72 60 57 71 62 39 16 5 9 7 358 351 346 344 347 350 345 333 320 312 311 315
Height
774 777 780 783 785 788 792 796 799 802 805 808 811 813 814 815 817 818 819 821 821 822 823 823 824 825 826 827 828 828 829 830 831 832 832 833 834 834 834 834 834 834 835 836 836 837 838 838 839 840 841 842 844 845 845 845 845 845 846 847 847 848 847 848 851 855 858 859 860 861 863 864 865 866 867 868 869 870 871 871 871 872 873 873 873
773 776 779 782 785 788 792 795 798 801 803 807 810 812 814 815 817 818 819 820 821 822 822 823 824 825 826 827 828 828 829 830 831 832 833 834 834 834 834 834 834 835 836 836 837 838 838 839 839 840 842 843 844 845 846 846 845 846 847 847 848 849 848 848 851 854 857 859 860 861 862 864 864 866 867 868 869 870 870 870 871 872 873 873 873
774 777 780 783 786 789 793 795 798 800 802 806 809 812 813 815 816 817 819 820 821 821 822 822 824 825 826 827 828 829 830 830 831 832 833 834 835 835 835 835 835 836 836 837 838 838 839 840 840 841 843 844 844 845 846 846 845 845 847 848 849 850 850 850 851 853 856 858 859 860 861 863 864 864 866 867 868 869 870 870 871 871 872 872 872
775 779 782 784 786 789 792 794 796 798 802 805 808 811 813 814 816 817 818 819 820 821 821 822 824 825 826 827 828 829 830 831 832 832 833 834 835 836 836 836 837 837 837 837 838 839 840 840 841 842 843 844 844 845 846 846 845 846 847 848 849 851 851 851 852 853 855 856 858 858 860 862 863 863 864 866 867 868 869 869 869 870 870 871 871
776 780 783 784 786 789 791 793 795 798 801 805 808 810 812 814 816 817 818 819 820 821 821 822 823 824 826 827 828 829 830 831 832 833 834 835 835 836 837 837 837 837 837 838 839 840 840 841 842 843 844 844 845 846 846 847 846 847 847 847 848 850 852 853 853 853 854 856 857 858 858 861 862 862 862 864 865 866 867 867 867 868 869 869 869
777 781 782 783 786 789 791 794 796 798 801 804 807 810 811 813 815 816 818 819 820 821 821 822 823 824 826 827 828 829 830 831 832 833 834 835 836 837 837 838 838 838 838 838 839 840 841 841 842 843 844 845 845 846 846 847 847 847 847 847 847 849 851 852 853 853 854 855 856 857 856 858 861 861 861 862 863 864 865 865 866 866 867 868 868
777 780 783 784 787 790 792 795 796 798 800 803 807 809 811 813 815 816 818 819 820 821 822 823 823 824 826 827 828 829 830 831 832 833 834 835 836 837 838 838 839 839 839 839 840 840 841 842 843 843 844 845 846 846 847 848 848 848 848 848 848 849 851 852 852 852 853 854 855 856 855 857 859 859 859 860 861 862 863 863 864 864 865 866 867
778 780 784 786 788 790 792 794 795 797 800 803 806 809 811 813 815 816 818 819 820 822 822 823 824 824 826 827 828 829 830 831 832 833 834 835 837 838 838 839 839 840 840 840 841 841 841 842 843 844 844 845 845 847 847 848 848 849 849 849 849 850 851 851 851 852 852 853 854 855 855 856 857 857 857 858 858 859 860 861 861 862 863 863 864
779 781 783 785 788 790 792 794 796 798 800 803 806 809 811 813 814 816 818 819 821 822 823 824 824 825 826 827 828 830 830 831 831 832 834 835 837 838 838 839 840 840 841 841 842 842 842 843 844 844 844 845 846 847 847 848 848 849 849 850 850 851 851 851 851 851 851 852 853 854 854 855 855 855 856 856 856 856 858 859 859 859 860 860 861
779 782 784 786 788 790 792 794 797 799 801 803 806 808 811 813 814 816 817 819 821 822 823 824 825 826 827 827 828 829 829 830 831 833 834 835 836 838 839 839 840 841 841 842 842 843 843 844 844 844 845 846 846 847 847 848 848 848 849 850 850 851 851 851 851 851 851 851 851 852 853 853 853 854 854 855 855 855 856 857 857 857 857 858 858
780 783 785 787 789 790 793 796 798 800 802 804 806 809 811 813 815 817 818 820 822 823 824 825 825 826 827 827 828 829 830 831 832 833 834 835 836 837 839 840 840 841 841 842 842 843 843 844 844 845 846 846 847 847 847 848 848 848 849 849 850 851 851 851 851 851 851 851 851 851 851 851 852 852 853 853 853 854 854 855 855 855 855 855 855
783 785 786 788 789 790 793 796 798 801 804 806 808 809 811 813 816 818 819 821 823 825 826 826 826 827 827 828 828 830 831 832 833 835 835 836 837 838 839 840 840 841 841 841 842 842 843 843 844 845 845 846 847 847 847 848 848 848 848 849 849 850 850 851 851 851 852 852 851 851 851 851 851 852 852 852 852 852 853 853 853 853 853 852 852
787 788 789 790 791 792 794 797 799 802 806 808 811 812 813 815 817 818 820 822 824 825 827 827 827 828 829 830 831 832 833 833 835 836 837 838 839 839 840 840 840 841 841 842 842 842 843 843 844 845 845 846 847 848 848 848 847 847 847 847 848 848 849 849 850 850 851 851 851 851 850 851 851 851 851 852 852 851 851 851 851 851 851 851 850
791 792 793 794 794 795 797 799 802 804 806 809 812 814 815 816 818 819 820 822 824 826 827 828 829 830 831 832 834 834 834 835 836 837 838 839 840 841 841 841 841 841 842 842 843 843 843 844 843 844 845 846 846 847 848 848 847 846 846 846 846 846 847 847 848 848 849 849 850 850 850 850 850 850 851 851 851 851 850 850 850 850 850 849 849
796 797 798 799 799 799 800 802 806 807 808 809 812 815 816 817 819 821 822 824 826 827 828 829 830 831 832 833 834 834 835 835 836 837 838 839 841 842 842 842 842 842 842 842 843 843 843 843 843 844 844 844 846 846 847 847 847 847 846 845 846 846 847 847 846 846 847 847 847 848 848 849 849 849 850 850 850 850 849 849 849 849 849 848 847
800 800 802 803 803 803 803 805 808 809 810 811 813 816 818 819 821 821 822 825 827 828 830 831 832 833 834 834 834 834 835 836 837 837 838 839 841 842 843 842 842 842 842 842 843 843 843 843 843 843 843 843 845 846 846 847 847 847 846 845 845 847 848 848 846 845 845 845 846 846 846 846 847 847 848 848 848 848 849 848 848 847 847 846 845
803 804 806 806 805 805 806 807 810 811 812 813 815 817 819 820 821 822 823 826 827 829 831 832 833 835 835 835 835 835 835 836 836 836 836 839 841 843 844 843 842 842 842 842 842 842 842 842 843 843 843 843 844 844 844 845 845 845 844 843 844 845 846 845 845 844 843 843 843 844 844 844 844 844 845 845 846 846 847 846 846 846 845 844 842
808 809 810 810 807 807 808 810 812 814 815 817 818 819 820 821 823 824 826 828 829 831 833 833 834 835 835 836 837 836 835 835 834 835 837 841 844 844 844 843 843 842 842 842 843 842 842 843 843 843 843 843 843 843 842 842 842 842 842 842 842 842 842 842 841 841 841 841 841 841 841 841 841 841 841 842 842 843 843 843 843 843 842 841 839
814 814 815 814 813 812 813 814 816 817 819 820 821 821 822 823 825 826 827 829 830 832 833 834 835 835 836 837 837 836 835 834 835 837 839 843 844 844 844 843 843 843 843 843 843 843 843 843 843 843 843 842 842 841 841 841 840 840 841 841 840 840 839 839 839 838 838 838 838 838 838 838 838 838 838 838 838 839 839 839 840 840 839 838 837
818 818 818 817 817 817 818 819 820 820 821 822 823 824 825 826 827 828 829 830 832 833 833 834 835 836 836 837 836 836 836 836 838 839 841 842 843 843 843 843 843 843 843 842 843 843 844 843 843 842 842 841 841 841 840 840 840 840 840 840 839 838 837 837 836 836 836 836 836 836 836 836 836 836 836 836 836 836 836 836 837 837 836 835 834
821 821 820 820 820 821 821 822 823 823 824 825 825 826 827 827 829 830 831 832 833 834 835 835 836 836 836 837 837 837 837 838 839 840 841 842 842 842 842 842 843 843 842 842 842 842 842 842 841 842 842 841 840 840 840 840 840 840 839 839 838 838 837 835 834 834 834 834 834 834 834 834 834 834 834 834 834 834 833 833 834 834 834 834 832
824 823 823 823 823 824 825 825 826 826 827 828 828 828 829 830 831 832 833 834 835 836 837 837 837 837 838 838 838 838 838 839 840 841 841 842 842 842 842 843 843 842 842 842 841 841 841 841 840 840 840 840 840 840 840 840 839 839 838 838 837 836 835 834 833 833 833 833 832 832 832 831 831 831 830 831 832 833 832 832 832 832 832 832 830
827 826 827 827 827 827 828 828 828 829 830 830 830 831 831 832 833 834 834 835 836 837 837 838 838 838 839 839 840 840 840 840 840 841 841 841 841 841 842 842 843 842 842 842 841 841 842 840 839 839 839 839 839 839 838 838 837 837 836 836 835 834 833 832 831 831 830 830 830 830 829 829 828 828 827 827 829 830 831 831 831 830 830 830 829
829 829 829 829 829 830 830 830 831 831 831 832 832 832 833 833 834 835 835 835 836 836 837 837 837 838 839 839 840 841 841 841 840 841 841 840 841 841 841 841 841 841 841 841 841 841 840 839 838 838 838 838 838 837 837 836 836 835 835 834 833 832 831 830 829 829 828 827 827 827 826 826 826 825 825 826 826 827 829 830 830 830 829 829 828
831 831 831 831 831 831 832 832 832 832 832 833 833 833 834 834 834 835 835 835 836 836 837 837 837 838 838 839 839 841 841 841 841 841 841 841 841 841 841 841 841 840 840 840 840 840 839 838 837 837 837 836 836 835 835 834 834 833 832 832 831 830 829 828 828 827 826 826 825 824 823 823 823 822 822 823 823 825 827 829 830 830 829 828 828
834 834 834 833 833 833 833 833 834 834 834 834 834 835 835 835 835 836 836 836 836 837 837 837 837 838 839 839 840 840 841 842 842 842 842 842 842 842 842 841 841 840 840 840 839 839 838 837 836 835 834 834 833 833 832 832 831 830 829 829 828 827 827 827 827 826 825 824 823 822 821 821 820 819 820 821 822 824 826 827 829 828 828 827 827
837 837 836 836 835 835 835 835 835 835 835 835 836 836 836 837 837 838 838 838 838 838 838 838 839 839 839 840 840 840 841 842 842 843 843 843 843 843 842 842 841 841 840 840 839 838 837 835 834 833 832 831 831 830 829 829 828 827 826 826 825 825 825 825 825 825 824 823 822 821 820 820 819 819 820 820 821 823 824 826 828 828 828 828 828
839 838 838 837 837 837 837 837 837 837 837 837 838 838 838 839 839 840 840 840 840 840 840 841 841 841 841 841 841 841 841 842 842 843 843 842 842 842 842 841 841 840 840 839 838 837 835 833 832 831 830 829 829 828 827 827 826 825 825 824 823 823 823 823 823 824 824 823 822 821 820 819 819 820 820 820 821 822 823 826 828 828 829 829 829
841 840 839 839 838 838 838 838 838 838 838 839 840 840 840 841 841 842 842 841 841 842 842 842 843 843 843 843 843 843 843 843 843 843 843 842 841 841 841 840 840 839 839 838 836 835 833 832 831 830 829 829 829 828 827 826 825 825 824 824 823 823 822 822 822 823 823 823 822 821 820 819 819 820 821 821 822 822 824 826 828 828 829 829 829
842 841 841 840 840 839 839 839 839 839 840 840 841 841 842 842 842 843 843 843 842 842 843 843 843 843 843 844 844 844 844 844 844 843 843 842 842 841 840 839 838 837 837 836 835 834 832 831 831 830 829 829 828 828 827 827 826 825 824 824 824 823 822 822 822 822 823 823 823 822 821 820 820 820 821 821 822 822 824 826 827 828 829 829 829
842 842 842 842 841 841 841 841 841 840 841 841 841 842 843 843 843 844 844 844 844 844 844 844 844 844 844 844 845 845 844 844 844 843 843 842 841 840 839 838 837 836 836 835 835 834 833 832 831 830 829 829 828 828 827 826 826 826 825 824 824 823 822 822 822 822 823 824 824 824 822 821 821 821 821 821 821 822 824 826 828 829 830 831 831
844 843 844 844 843 843 842 842 842 842 842 842 841 842 842 843 844 845 845 845 845 845 846 846 845 845 845 845 845 845 844 844 843 843 842 842 841 840 839 838 837 836 836 835 835 834 833 832 831 830 829 828 828 828 827 827 826 826 826 825 824 824 823 823 823 823 824 824 825 824 823 822 822 822 822 823 824 824 826 828 829 830 832 833 833
846 846 845 845 844 844 844 844 843 843 843 843 842 842 842 842 843 845 845 846 846 846 846 846 847 847 846 845 845 845 844 844 843 843 842 842 841 841 840 839 839 837 836 836 835 834 833 832 831 830 829 828 829 829 829 829 828 827 827 826 825 825 824 824 824 824 823 823 825 825 824 824 823 823 824 825 826 827 828 830 831 832 833 834 834
849 848 848 847 846 845 845 845 844 844 844 844 844 844 843 843 844 844 845 845 846 847 846 846 846 847 846 846 845 845 844 844 844 843 843 842 842 841 840 840 839 838 837 837 836 835 834 833 833 832 831 830 831 831 831 831 830 829 828 827 826 825 825 825 825 824 823 823 824 824 824 825 825 825 826 827 828 829 830 832 833 834 834 835 835
849 849 849 849 847 846 846 846 846 845 845 845 845 845 845 845 845 845 845 845 845 845 846 846 846 846 846 846 846 846 845 845 845 844 844 843 842 842 841 840 840 839 839 838 838 837 837 836 835 834 834 833 833 833 832 832 831 830 829 828 827 826 826 826 825 825 824 824 825 825 825 826 827 828 829 829 830 831 832 833 834 835 835 835 834
848 848 849 849 848 848 848 848 848 848 846 846 846 846 846 846 845 844 844 845 844 844 845 846 846 846 847 847 847 847 847 847 846 845 845 844 843 842 842 841 841 840 840 840 840 839 838 838 837 837 836 835 835 834 833 832 832 831 830 829 828 828 827 826 827 827 826 825 826 826 827 828 829 830 830 831 832 833 833 834 835 835 836 835 834
849 849 849 849 850 850 849 849 850 850 848 847 846 846 846 846 846 845 845 846 846 845 846 847 847 847 847 848 848 848 848 848 847 846 846 845 844 843 842 842 841 841 841 841 840 840 840 839 839 838 838 837 836 835 834 833 833 832 831 831 830 829 828 828 828 829 828 827 827 828 829 829 830 831 832 832 832 833 835 836 836 836 835 834 833
850 851 851 851 851 850 850 849 850 850 848 847 846 847 847 847 846 846 847 848 848 847 846 847 848 849 849 849 849 849 848 848 847 847 846 845 844 844 843 843 843 843 843 842 842 842 841 841 840 840 839 838 837 836 835 834 833 833 832 832 831 830 830 830 830 830 830 830 830 830 831 831 832 832 833 834 833 834 835 836 836 835 834 833 832
850 851 851 852 852 851 850 850 850 850 848 847 848 849 849 848 847 848 848 848 849 848 847 848 850 851 851 851 850 849 849 848 848 848 847 847 846 846 845 845 845 845 845 844 844 843 843 842 842 841 840 839 838 837 836 835 834 834 834 833 832 832 832 832 833 832 833 833 832 832 833 833 833 833 834 835 834 834 835 836 836 835 834 833 833
850 850 851 852 852 852 851 851 850 849 849 849 849 850 850 849 849 849 849 850 850 850 850 850 852 853 853 852 851 850 849 849 850 850 850 849 849 848 848 848 847 847 846 846 845 845 844 843 843 842 841 840 839 838 837 836 836 836 836 835 835 834 834 834 835 835 835 834 834 834 835 835 835 835 835 836 835 835 836 836 836 836 835 834 835
849 849 850 851 851 851 851 851 850 850 850 850 850 850 851 851 850 849 850 851 851 851 852 853 854 854 854 853 852 851 851 851 852 852 852 852 851 851 850 850 849 849 848 847 846 846 845 844 844 843 842 841 840 840 839 838 838 838 838 838 837 837 837 837 837 837 837 836 837 837 837 837 837 837 837 837 836 836 836 836 836 836 837 836 836
849 849 849 850 850 850 850 849 850 850 851 851 851 851 851 851 851 851 851 852 852 852 853 854 855 855 855 854 853 853 853 854 854 854 854 853 853 852 852 852 851 850 849 848 847 847 846 845 845 843 842 842 842 841 841 840 840 840 840 840 839 839 839 839 839 839 839 839 839 839 839 839 838 838 838 838 837 836 836 836 836 837 837 837 837
850 849 849 850 849 849 849 849 849 850 851 852 853 853 852 852 852 852 853 853 853 854 854 855 855 856 856 856 855 854 855 855 855 855 855 855 854 854 854 853 852 852 851 850 849 848 847 847 846 844 843 843 843 843 842 842 842 842 842 841 841 841 841 841 841 841 841 841 840 840 840 840 839 839 839 839 838 838 838 838 838 837 837 837 837
850 849 850 850 849 848 849 849 850 851 852 853 853 854 853 853 853 853 853 854 855 855 856 856 856 856 856 856 856 856 856 856 856 856 856 856 856 856 855 855 854 853 852 851 851 850 849 848 847 846 845 844 844 844 844 843 843 843 843 843 843 843 843 843 843 843 842 842 842 842 841 841 841 840 840 840 839 839 839 839 839 838 838 838 838
850 849 849 849 849 848 848 849 850 852 853 854 854 854 853 853 853 854 854 855 855 856 856 857 857 857 857 857 856 857 857 857 857 858 858 857 857 857 857 856 855 855 854 853 852 851 850 850 848 847 847 846 846 846 845 845 845 845 845 845 845 845 845 845 845 844 844 844 844 843 843 842 842 842 842 841 841 841 840 840 840 840 839 839 840
849 849 848 849 849 849 848 849 850 852 853 853 853 853 853 853 854 854 855 855 856 857 857 857 857 857 857 857 857 857 858 858 858 859 859 858 859 858 858 857 857 856 855 854 853 852 852 851 850 849 849 848 848 848 847 847 846 846 846 846 846 846 846 847 846 846 846 845 844 844 844 843 843 843 843 843 842 842 841 841 841 841 841 840 840
849 849 848 848 849 849 849 849 850 852 853 854 854 854 854 854 854 855 856 857 857 857 857 857 857 857 857 857 858 858 858 858 859 859 859 859 859 859 859 858 858 857 856 856 855 854 853 852 852 851 850 850 849 849 849 849 848 848 848 847 847 847 847 847 847 847 847 846 846 845 844 844 844 844 844 843 843 842 842 842 841 841 841 841 840
849 849 848 848 848 849 849 849 850 852 853 854 854 854 855 855 855 855 856 857 857 857 857 857 857 857 858 858 858 858 859 859 859 859 859 859 859 859 859 859 858 858 858 857 856 856 855 854 853 853 852 852 851 851 851 851 850 849 849 848 848 848 848 848 848 848 847 847 847 847 846 845 845 844 844 844 844 843 843 842 842 841 841 841 841
848 848 848 848 848 848 847 848 849 851 852 853 854 855 855 855 855 855 855 856 856 857 857 857 857 857 858 858 858 858 858 859 858 858 859 859 860 860 860 859 859 859 859 858 858 857 856 855 855 854 854 853 853 852 852 851 851 850 850 849 849 849 849 849 849 848 848 848 848 848 847 846 846 845 845 845 844 844 843 843 842 842 842 841 841
848 848 848 848 848 848 848 848 848 849 849 851 852 853 854 854 854 855 855 855 856 856 857 857 857 857 857 858 858 858 858 858 858 858 859 860 860 860 860 860 860 860 859 859 859 858 857 857 856 855 855 854 854 853 853 852 852 851 851 851 850 850 850 850 850 849 849 848 848 849 848 848 847 846 846 845 845 844 844 843 843 843 842 841 840
848 848 847 848 848 848 848 848 848 848 848 849 850 851 852 853 853 854 855 855 855 856 857 858 858 857 857 858 858 858 858 858 858 859 859 860 861 861 861 861 860 860 860 859 859 859 858 858 857 857 856 855 855 854 854 853 853 853 852 852 852 851 851 851 851 850 850 849 849 849 849 848 848 847 847 846 845 845 844 844 844 844 843 841 840